QPF
0.00 0.00 0.00 0.07 0.43 0.05 0.01 0.00 0.01 0.02 0.01 0.00 0.00 0.01 0.06 0.09 0.06 0.04 0.01 0.00 0.00 0.00 0.00 0.00 0.04 0.10 0.01 0.00 0.00 0.00 0.00 0.00 0.00 0.00 0.00 0.00 0.00 0.00 0.00 0.00 0.00 0.00 0.00 0.00 0.00 0.00 0.00 0.00 0.00
0.00 0.00 0.00 0.02 0.04 0.02 0.00 0.00 0.01 0.02 0.00 0.00 0.00 0.01 0.01 0.02 0.00 0.00 0.01 0.01 0.01 0.00 0.00 0.00 0.01 0.02 0.00 0.00 0.00 0.00 0.00 0.00 0.00 0.00 0.00 0.00 0.00 0.00 0.00 0.00 0.00 0.00 0.00 0.00 0.00 0.00 0.00 0.00 0.00
0.00 0.00 0.00 0.00 0.00 0.00 0.00 0.00 0.00 0.00 0.00 0.00 0.00 0.01 0.00 0.01 0.00 0.00 0.00 0.00 0.01 0.01 0.00 0.00 0.00 0.01 0.01 0.00 0.00 0.00 0.00 0.00 0.00 0.00 0.00 0.00 0.00 0.00 0.00 0.00 0.00 0.00 0.00 0.00 0.00 0.00 0.00 0.00 0.00
0.00 0.00 0.00 0.00 0.00 0.00 0.00 0.00 0.00 0.00 0.00 0.00 0.00 0.00 0.00 0.00 0.01 0.00 0.00 0.02 0.02 0.00 0.00 0.00 0.00 0.01 0.02 0.00 0.00 0.00 0.00 0.00 0.00 0.00 0.00 0.00 0.00 0.00 0.00 0.00 0.00 0.00 0.00 0.00 0.00 0.00 0.00 0.00 0.00
0.00 0.00 0.00 0.00 0.00 0.00 0.00 0.00 0.00 0.00 0.00 0.00 0.00 0.00 0.00 0.00 0.00 0.00 0.00 0.01 0.01 0.01 0.00 0.00 0.00 0.00 0.00 0.00 0.00 0.00 0.00 0.00 0.00 0.00 0.00 0.00 0.00 0.00 0.00 0.00 0.00 0.00 0.00 0.00 0.00 0.00 0.00 0.00 0.00
0.00 0.00 0.00 0.00 0.00 0.00 0.00 0.00 0.00 0.00 0.00 0.00 0.00 0.00 0.00 0.00 0.00 0.00 0.00 0.01 0.01 0.00 0.00 0.00 0.00 0.00 0.00 0.00 0.00 0.00 0.00 0.00 0.00 0.00 0.00 0.00 0.00 0.00 0.00 0.00 0.00 0.00 0.00 0.00 0.00 0.00 0.00 0.00 0.00
0.00 0.00 0.00 0.00 0.00 0.00 0.00 0.00 0.00 0.00 0.00 0.00 0.00 0.00 0.00 0.00 0.00 0.00 0.00 0.00 0.01 0.01 0.00 0.00 0.00 0.00 0.00 0.00 0.00 0.00 0.00 0.00 0.00 0.00 0.00 0.00 0.00 0.00 0.00 0.00 0.00 0.00 0.00 0.00 0.00 0.00 0.00 0.00 0.00
0.00 0.00 0.00 0.00 0.00 0.00 0.00 0.00 0.00 0.00 0.00 0.00 0.00 0.00 0.00 0.00 0.00 0.00 0.00 0.00 0.00 0.00 0.00 0.00 0.00 0.00 0.00 0.00 0.01 0.00 0.00 0.00 0.00 0.00 0.00 0.00 0.00 0.00 0.00 0.00 0.02 0.00 0.00 0.00 0.00 0.00 0.00 0.00 0.00
0.00 0.00 0.00 0.00 0.00 0.00 0.00 0.00 0.00 0.00 0.00 0.00 0.00 0.00 0.00 0.00 0.00 0.00 0.00 0.00 0.00 0.00 0.00 0.00 0.00 0.00 0.00 0.00 0.00 0.00 0.00 0.00 0.00 0.00 0.00 0.00 0.00 0.00 0.01 0.01 0.01 0.00 0.00 0.00 0.00 0.00 0.00 0.00 0.00
0.00 0.04 0.00 0.00 0.00 0.00 0.00 0.00 0.00 0.00 0.00 0.00 0.00 0.00 0.00 0.00 0.00 0.00 0.00 0.00 0.00 0.00 0.00 0.00 0.00 0.00 0.00 0.00 0.00 0.00 0.00 0.00 0.00 0.00 0.00 0.00 0.00 0.00 0.00 0.00 0.00 0.00 0.00 0.00 0.00 0.00 0.00 0.00 0.00
0.00 0.00 0.00 0.00 0.00 0.00 0.00 0.00 0.00 0.00 0.00 0.00 0.00 0.00 0.00 0.00 0.00 0.00 0.00 0.00 0.00 0.00 0.00 0.00 0.00 0.00 0.00 0.00 0.00 0.00 0.00 0.00 0.00 0.00 0.00 0.00 0.00 0.00 0.00 0.03 0.00 0.00 0.00 0.01 0.01 0.00 0.00 0.00 0.00
0.00 0.00 0.00 0.00 0.00 0.00 0.00 0.00 0.00 0.00 0.00 0.00 0.00 0.00 0.00 0.00 0.00 0.00 0.00 0.00 0.00 0.00 0.00 0.00 0.00 0.00 0.00 0.00 0.00 0.00 0.00 0.00 0.00 0.00 0.00 0.00 0.00 0.00 0.00 0.00 0.00 0.00 0.00 0.00 0.00 0.00 0.00 0.00 0.00
0.00 0.00 0.00 0.00 0.00 0.00 0.00 0.00 0.00 0.00 0.00 0.00 0.00 0.00 0.00 0.00 0.00 0.00 0.00 0.00 0.00 0.00 0.00 0.00 0.00 0.00 0.00 0.00 0.00 0.00 0.00 0.00 0.00 0.00 0.00 0.00 0.00 0.00 0.00 0.00 0.00 0.00 0.00 0.00 0.00 0.00 0.00 0.00 0.00
0.00 0.00 0.00 0.00 0.00 0.00 0.00 0.00 0.00 0.00 0.00 0.00 0.00 0.00 0.00 0.00 0.00 0.00 0.00 0.00 0.00 0.00 0.00 0.00 0.00 0.00 0.00 0.00 0.00 0.00 0.00 0.00 0.00 0.00 0.00 0.00 0.00 0.05 0.00 0.02 0.01 0.00 0.00 0.00 0.00 0.00 0.01 0.01 0.00
0.00 0.00 0.00 0.00 0.00 0.00 0.00 0.00 0.00 0.00 0.00 0.00 0.00 0.00 0.00 0.00 0.00 0.00 0.00 0.00 0.00 0.00 0.00 0.00 0.00 0.00 0.00 0.00 0.00 0.00 0.00 0.00 0.00 0.00 0.00 0.00 0.04 0.02 0.00 0.01 0.00 0.00 0.01 0.02 0.04 0.07 0.03 0.00 0.00
0.00 0.00 0.00 0.00 0.00 0.00 0.00 0.00 0.00 0.00 0.00 0.00 0.00 0.00 0.00 0.00 0.00 0.00 0.00 0.00 0.00 0.00 0.00 0.00 0.00 0.00 0.00 0.00 0.00 0.00 0.00 0.00 0.00 0.00 0.00 0.00 0.06 0.01 0.00 0.01 0.00 0.00 0.00 0.03 0.05 0.03 0.02 0.00 0.00
0.00 0.00 0.00 0.00 0.00 0.00 0.00 0.02 0.00 0.00 0.00 0.00 0.00 0.00 0.00 0.00 0.00 0.00 0.00 0.00 0.00 0.00 0.00 0.00 0.00 0.00 0.00 0.00 0.00 0.00 0.02 0.02 0.01 0.00 0.00 0.00 0.00 0.01 0.01 0.01 0.01 0.01 0.03 0.06 0.04 0.01 0.00 0.00 0.00
0.00 0.00 0.00 0.00 0.00 0.00 0.00 0.01 0.00 0.00 0.00 0.00 0.00 0.00 0.00 0.00 0.00 0.00 0.00 0.00 0.00 0.00 0.00 0.00 0.00 0.00 0.00 0.06 0.10 0.05 0.01 0.00 0.00 0.00 0.03 0.05 0.02 0.00 0.01 0.02 0.03 0.02 0.04 0.05 0.04 0.00 0.00 0.00 0.00
0.00 0.00 0.00 0.00 0.00 0.00 0.00 0.00 0.00 0.00 0.00 0.00 0.00 0.00 0.00 0.00 0.00 0.00 0.00 0.00 0.00 0.00 0.00 0.00 0.00 0.00 0.03 0.04 0.03 0.00 0.00 0.00 0.00 0.00 0.00 0.03 0.04 0.05 0.06 0.02 0.03 0.02 0.01 0.01 0.00 0.00 0.00 0.00 0.00
0.00 0.00 0.00 0.00 0.00 0.00 0.00 0.00 0.00 0.00 0.00 0.00 0.00 0.00 0.00 0.00 0.00 0.00 0.00 0.00 0.00 0.00 0.00 0.00 0.00 0.00 0.01 0.01 0.00 0.00 0.00 0.00 0.00 0.00 0.01 0.01 0.01 0.01 0.02 0.01 0.00 0.01 0.00 0.00 0.00 0.00 0.00 0.00 0.00
0.00 0.00 0.00 0.00 0.00 0.00 0.00 0.00 0.00 0.00 0.00 0.00 0.00 0.00 0.00 0.00 0.00 0.00 0.00 0.00 0.00 0.00 0.00 0.00 0.00 0.00 0.00 0.01 0.01 0.03 0.03 0.01 0.00 0.00 0.00 0.00 0.00 0.00 0.01 0.01 0.00 0.00 0.00 0.00 0.00 0.00 0.00 0.00 0.00
0.00 0.00 0.00 0.00 0.00 0.00 0.00 0.00 0.00 0.00 0.00 0.00 0.00 0.00 0.00 0.00 0.00 0.00 0.00 0.00 0.00 0.00 0.00 0.00 0.00 0.00 0.00 0.02 0.01 0.03 0.00 0.00 0.00 0.00 0.00 0.00 0.00 0.00 0.00 0.00 0.00 0.00 0.00 0.00 0.00 0.00 0.00 0.00 0.00
0.00 0.00 0.00 0.00 0.00 0.00 0.00 0.00 0.00 0.00 0.00 0.00 0.00 0.00 0.00 0.00 0.00 0.00 0.00 0.00 0.00 0.00 0.00 0.00 0.00 0.00 0.00 0.00 0.00 0.01 0.00 0.00 0.00 0.00 0.00 0.00 0.00 0.00 0.00 0.00 0.00 0.00 0.00 0.00 0.00 0.00 0.00 0.00 0.00
0.00 0.00 0.00 0.00 0.00 0.00 0.00 0.00 0.00 0.00 0.00 0.00 0.00 0.00 0.00 0.00 0.00 0.00 0.00 0.00 0.00 0.00 0.00 0.00 0.00 0.00 0.00 0.00 0.00 0.00 0.00 0.00 0.00 0.00 0.00 0.00 0.00 0.00 0.00 0.00 0.00 0.00 0.00 0.00 0.00 0.00 0.00 0.00 0.00
0.00 0.00 0.00 0.00 0.00 0.00 0.00 0.00 0.00 0.00 0.00 0.00 0.00 0.00 0.00 0.00 0.00 0.00 0.00 0.00 0.00 0.00 0.00 0.00 0.00 0.00 0.00 0.00 0.00 0.00 0.00 0.00 0.00 0.00 0.00 0.00 0.00 0.00 0.00 0.00 0.00 0.00 0.00 0.00 0.00 0.00 0.00 0.00 0.00
0.00 0.00 0.00 0.00 0.00 0.00 0.00 0.00 0.00 0.00 0.00 0.00 0.00 0.00 0.00 0.00 0.00 0.00 0.00 0.00 0.00 0.00 0.00 0.00 0.00 0.00 0.00 0.00 0.00 0.00 0.00 0.00 0.00 0.00 0.00 0.00 0.00 0.00 0.00 0.00 0.00 0.00 0.00 0.00 0.00 0.00 0.00 0.00 0.00
0.00 0.00 0.00 0.00 0.00 0.00 0.00 0.00 0.00 0.00 0.00 0.00 0.00 0.00 0.00 0.00 0.00 0.00 0.00 0.00 0.00 0.00 0.00 0.00 0.00 0.00 0.00 0.00 0.00 0.00 0.00 0.00 0.00 0.00 0.00 0.00 0.00 0.00 0.00 0.00 0.00 0.00 0.00 0.00 0.00 0.00 0.00 0.00 0.00
0.00 0.00 0.00 0.00 0.00 0.00 0.00 0.00 0.00 0.00 0.00 0.00 0.00 0.00 0.00 0.00 0.00 0.00 0.00 0.00 0.00 0.00 0.00 0.00 0.00 0.00 0.00 0.00 0.00 0.00 0.00 0.00 0.00 0.00 0.00 0.00 0.00 0.00 0.00 0.00 0.00 0.00 0.00 0.00 0.00 0.00 0.00 0.00 0.00
0.00 0.00 0.00 0.00 0.00 0.00 0.00 0.00 0.00 0.00 0.00 0.00 0.00 0.00 0.00 0.00 0.00 0.00 0.00 0.00 0.00 0.00 0.00 0.00 0.00 0.00 0.00 0.00 0.00 0.00 0.00 0.00 0.00 0.00 0.00 0.00 0.00 0.00 0.00 0.00 0.00 0.00 0.00 0.00 0.00 0.00 0.00 0.00 0.00
0.00 0.00 0.00 0.00 0.00 0.00 0.00 0.00 0.00 0.00 0.00 0.00 0.00 0.00 0.00 0.00 0.00 0.00 0.00 0.00 0.00 0.00 0.00 0.00 0.00 0.00 0.00 0.00 0.00 0.00 0.00 0.00 0.00 0.00 0.00 0.00 0.00 0.00 0.00 0.00 0.00 0.00 0.00 0.00 0.00 0.00 0.00 0.00 0.00
MSLP
1008.63 1008.50 1008.10 1008.34 1007.30 1007.00 1004.28 1003.82 1003.95 1003.75 1003.96 1004.24 1004.74 1006.08 1007.01 1008.32 1008.38 1010.08 1012.22 1012.55 1012.38 1012.60 1013.62 1014.05 1014.55 1014.75 1014.83 1015.11 1015.30 1015.49 1015.72 1016.02 1016.24 1016.31 1016.45 1016.67 1016.79 1016.85 1016.87 1016.93 1017.12 1017.12 1017.09 1017.12 1017.10 1017.19 1017.19 1017.25 1017.20
1006.94 1006.61 1006.51 1004.36 1004.03 1005.14 1003.36 1003.14 1003.50 1003.47 1003.74 1004.19 1004.58 1005.03 1006.05 1007.32 1008.07 1010.00 1011.05 1011.77 1011.93 1012.21 1012.98 1013.95 1014.78 1014.91 1015.23 1015.45 1015.61 1015.71 1015.92 1016.16 1016.44 1016.56 1016.69 1016.82 1016.98 1017.10 1017.03 1017.17 1017.30 1017.29 1017.29 1017.29 1017.28 1017.35 1017.38 1017.38 1017.36
1005.43 1005.19 1003.80 1001.76 1002.48 1002.48 1002.11 1002.38 1002.79 1003.45 1003.60 1003.75 1004.57 1005.23 1005.99 1007.84 1008.51 1009.63 1010.99 1011.60 1011.67 1012.46 1012.91 1014.38 1015.00 1015.15 1015.47 1015.60 1015.72 1015.87 1016.05 1016.30 1016.58 1016.73 1016.91 1017.03 1017.22 1017.26 1017.33 1017.43 1017.47 1017.43 1017.46 1017.44 1017.41 1017.43 1017.41 1017.43 1017.44
1004.64 1003.50 1002.08 999.97 1000.36 1000.82 1001.27 1001.73 1002.64 1003.03 1003.54 1003.97 1004.65 1005.81 1006.84 1007.70 1008.80 1009.50 1010.80 1011.61 1012.03 1012.56 1012.97 1014.73 1015.14 1015.35 1015.61 1015.84 1015.88 1016.09 1016.29 1016.52 1016.79 1016.98 1017.15 1017.30 1017.44 1017.50 1017.55 1017.62 1017.55 1017.52 1017.58 1017.53 1017.47 1017.44 1017.46 1017.50 1017.53
1003.44 1001.46 999.95 999.80 1000.69 1000.63 1000.97 1001.57 1001.83 1002.24 1003.00 1003.66 1004.59 1006.24 1007.41 1008.09 1008.62 1009.64 1011.02 1011.93 1012.20 1012.63 1013.19 1014.45 1015.21 1015.50 1015.76 1016.01 1016.14 1016.34 1016.55 1016.78 1017.02 1017.22 1017.39 1017.52 1017.60 1017.65 1017.69 1017.68 1017.66 1017.62 1017.66 1017.62 1017.59 1017.53 1017.50 1017.52 1017.56
1001.80 1000.19 999.64 998.72 1000.26 1000.73 1001.06 1001.39 1001.53 1001.95 1002.94 1004.20 1004.93 1006.37 1007.58 1008.67 1009.19 1009.90 1011.02 1011.78 1012.23 1012.29 1012.86 1014.35 1015.33 1015.63 1015.92 1016.15 1016.36 1016.55 1016.74 1017.00 1017.23 1017.42 1017.53 1017.64 1017.68 1017.69 1017.68 1017.72 1017.74 1017.72 1017.72 1017.68 1017.63 1017.60 1017.53 1017.57 1017.61
1000.87 1000.63 999.29 998.67 999.95 1000.28 1000.83 1001.28 1001.12 1002.07 1003.14 1003.75 1005.23 1005.95 1007.99 1008.54 1009.13 1009.61 1010.71 1011.59 1011.97 1012.18 1012.76 1013.96 1014.69 1015.52 1016.02 1016.30 1016.55 1016.80 1017.03 1017.23 1017.45 1017.54 1017.68 1017.70 1017.69 1017.68 1017.65 1017.65 1017.69 1017.74 1017.79 1017.79 1017.71 1017.68 1017.63 1017.61 1017.59
999.85 1000.27 998.48 998.91 998.83 999.86 1000.79 1001.03 1001.51 1001.97 1002.70 1003.85 1004.29 1005.92 1007.49 1008.36 1008.99 1009.30 1009.86 1011.60 1012.02 1012.19 1012.47 1013.38 1014.29 1014.91 1015.43 1016.08 1016.72 1016.99 1017.19 1017.36 1017.53 1017.62 1017.65 1017.64 1017.54 1017.47 1017.40 1017.43 1017.62 1017.74 1017.76 1017.80 1017.74 1017.63 1017.54 1017.46 1017.41
1000.23 1000.85 998.63 998.33 999.17 999.58 1000.59 1000.82 1001.87 1002.31 1003.58 1004.10 1004.37 1005.35 1007.31 1008.69 1009.00 1009.38 1009.83 1011.20 1012.13 1012.26 1013.15 1012.96 1013.47 1014.46 1015.01 1015.62 1016.53 1017.03 1017.26 1017.43 1017.57 1017.58 1017.60 1017.48 1016.77 1016.98 1016.85 1017.27 1017.50 1017.63 1017.71 1017.73 1017.73 1017.72 1017.47 1017.45 1017.43
1000.22 1001.50 999.43 997.89 998.27 998.83 1000.05 1000.59 1001.63 1002.52 1003.55 1004.08 1005.03 1005.51 1007.66 1008.76 1009.11 1009.29 1009.71 1010.34 1011.14 1012.35 1012.66 1012.92 1013.77 1014.19 1014.67 1014.88 1016.27 1016.49 1016.61 1016.70 1016.73 1016.63 1017.05 1016.76 1016.08 1016.30 1016.56 1016.92 1017.28 1017.46 1017.49 1017.51 1017.52 1017.35 1017.20 1017.27 1016.78
999.24 1000.46 999.02 998.13 998.54 998.68 999.74 1000.27 1001.34 1001.79 1002.88 1003.78 1004.93 1006.16 1007.68 1008.55 1009.12 1009.31 1009.58 1010.17 1010.76 1012.45 1012.18 1012.79 1014.02 1014.72 1014.34 1014.37 1015.43 1015.37 1015.47 1015.57 1015.86 1016.13 1016.45 1016.17 1016.01 1016.12 1016.37 1016.99 1016.41 1016.51 1017.03 1016.98 1017.21 1017.10 1016.91 1016.60 1016.14
998.64 998.26 998.21 997.90 998.50 998.46 998.98 999.84 1000.80 1001.64 1001.70 1003.32 1004.72 1006.15 1007.43 1008.16 1008.69 1009.00 1009.27 1009.75 1010.33 1011.46 1011.66 1012.23 1013.27 1013.99 1014.14 1014.61 1014.56 1014.48 1014.58 1014.87 1015.03 1015.55 1016.52 1016.61 1016.43 1016.08 1016.25 1016.82 1016.61 1016.61 1016.70 1016.47 1016.71 1016.45 1016.61 1016.61 1016.41
998.16 997.91 997.73 997.77 998.17 998.34 998.64 999.61 1000.43 1001.51 1002.35 1003.38 1004.50 1005.97 1007.06 1007.68 1008.33 1008.68 1009.02 1009.56 1010.14 1011.03 1011.52 1012.25 1013.24 1014.08 1014.19 1014.41 1014.30 1014.28 1014.45 1014.75 1014.70 1015.17 1015.95 1016.26 1015.91 1016.06 1016.47 1016.39 1016.62 1016.53 1016.34 1016.71 1016.50 1016.76 1016.50 1016.62 1016.52
997.48 997.46 997.45 997.38 997.60 998.31 998.52 999.41 1000.67 1001.41 1002.49 1003.36 1004.55 1005.63 1006.54 1007.17 1007.76 1008.36 1008.88 1009.41 1010.07 1010.86 1011.46 1012.17 1013.11 1014.03 1014.39 1014.63 1014.70 1014.54 1014.64 1014.74 1014.73 1014.89 1015.13 1016.32 1016.24 1016.50 1016.44 1016.47 1016.33 1016.39 1016.68 1016.73 1016.75 1016.50 1017.00 1017.16 1016.92
997.77 997.60 997.27 997.37 997.55 998.18 998.56 999.39 1000.22 1000.96 1002.38 1003.26 1004.29 1005.19 1005.96 1006.60 1007.27 1007.94 1008.64 1009.27 1010.08 1010.79 1011.41 1012.04 1012.86 1013.47 1014.31 1014.62 1014.92 1015.09 1014.57 1014.64 1014.70 1014.82 1015.11 1015.67 1016.25 1016.43 1016.58 1016.18 1016.23 1016.19 1016.51 1016.82 1016.97 1017.45 1016.97 1016.77 1016.30
997.44 997.17 996.17 996.73 997.50 998.05 998.39 998.44 999.70 1000.66 1001.90 1002.60 1003.77 1004.69 1005.49 1006.14 1006.70 1007.59 1008.34 1009.02 1009.74 1010.42 1011.20 1011.94 1012.31 1012.95 1013.85 1014.20 1014.47 1014.54 1014.33 1014.82 1014.78 1014.51 1015.21 1015.46 1016.09 1016.39 1016.48 1016.10 1015.99 1015.87 1016.14 1016.39 1016.86 1016.88 1016.90 1016.11 1015.76
996.87 996.01 995.56 996.19 997.06 997.77 998.34 1000.33 999.02 1000.37 1001.22 1001.92 1003.05 1003.96 1004.81 1005.68 1006.31 1007.07 1007.82 1008.67 1009.17 1010.16 1010.99 1011.74 1012.14 1012.39 1013.14 1013.87 1013.93 1014.19 1014.13 1014.48 1014.60 1014.52 1014.84 1015.23 1015.63 1015.89 1016.25 1015.74 1015.70 1016.26 1016.47 1016.77 1016.86 1016.72 1016.32 1016.12 1016.10
995.69 995.43 994.50 995.18 996.49 997.28 997.83 998.40 998.57 999.90 1000.47 1001.21 1002.33 1003.16 1004.12 1004.85 1005.64 1006.44 1007.30 1008.11 1008.87 1009.69 1010.67 1011.54 1012.09 1012.53 1012.97 1013.46 1014.14 1014.27 1014.14 1014.31 1014.15 1014.11 1014.29 1015.01 1015.43 1015.66 1015.75 1015.57 1016.17 1016.56 1016.35 1016.52 1016.89 1016.77 1016.55 1016.77 1016.33
995.17 994.50 994.26 994.28 995.31 996.79 997.14 997.53 998.23 999.31 999.97 1000.42 1001.39 1002.41 1003.26 1004.01 1004.87 1005.79 1006.79 1007.50 1008.39 1009.16 1010.15 1011.03 1011.82 1012.38 1012.95 1013.65 1014.10 1014.11 1013.76 1013.60 1013.45 1013.57 1013.96 1014.86 1015.59 1015.72 1015.92 1016.13 1016.34 1016.20 1016.15 1016.38 1016.57 1016.62 1016.48 1016.42 1016.02
995.18 994.07 993.67 994.02 994.80 995.99 996.27 996.45 996.97 998.30 999.19 999.66 1000.25 1001.26 1002.25 1003.13 1003.87 1005.04 1005.99 1006.78 1007.60 1008.55 1009.43 1010.41 1011.25 1011.90 1012.64 1013.19 1013.35 1013.12 1013.01 1012.84 1012.98 1013.36 1013.53 1014.25 1014.60 1015.03 1015.85 1015.74 1015.38 1015.66 1015.67 1016.21 1016.71 1017.08 1016.70 1016.05 1016.26
994.92 994.00 993.35 993.49 994.33 995.89 995.64 996.06 996.06 996.79 997.91 998.90 999.39 999.99 1000.90 1001.76 1002.67 1003.87 1005.08 1006.00 1006.80 1007.67 1008.69 1009.55 1010.48 1011.22 1011.98 1012.45 1012.79 1013.10 1013.19 1012.91 1012.96 1012.87 1013.51 1014.03 1014.55 1014.68 1015.20 1015.51 1015.58 1015.77 1016.20 1015.88 1016.73 1016.87 1016.89 1016.22 1016.06
994.26 994.51 993.79 993.49 994.67 994.96 995.37 994.47 994.75 995.55 996.19 997.28 998.25 998.85 999.54 1000.46 1001.58 1002.58 1004.03 1005.12 1005.82 1006.73 1007.96 1008.92 1009.85 1010.73 1011.40 1012.09 1012.05 1012.45 1012.66 1012.54 1012.29 1012.49 1012.49 1013.05 1013.79 1014.14 1014.53 1014.96 1015.32 1015.77 1016.04 1016.05 1016.55 1016.73 1017.08 1017.02 1016.16
994.19 994.11 994.06 993.70 993.55 994.97 993.90 994.24 993.35 994.21 994.30 995.25 996.45 997.41 998.32 999.16 1000.28 1001.39 1002.53 1003.99 1004.97 1005.94 1007.00 1008.13 1009.19 1010.10 1010.69 1011.27 1011.76 1011.93 1012.29 1011.70 1011.75 1012.11 1012.67 1013.43 1013.88 1014.17 1014.34 1014.91 1015.28 1016.04 1016.26 1016.32 1016.60 1016.81 1017.11 1016.77 1016.66
994.74 994.27 993.85 993.86 993.47 993.00 993.21 993.29 992.73 993.86 993.04 993.67 994.44 995.63 996.98 998.01 999.03 1000.29 1001.52 1002.77 1004.01 1004.99 1006.02 1007.12 1008.29 1009.30 1010.12 1010.57 1011.19 1011.48 1011.42 1011.57 1011.62 1012.05 1012.59 1013.08 1013.39 1014.05 1014.37 1014.70 1015.26 1015.85 1016.14 1016.23 1016.60 1016.98 1017.15 1017.25 1017.02
994.53 994.09 993.31 992.90 992.40 992.18 992.45 992.18 993.02 991.57 992.12 993.05 993.38 993.88 995.04 996.62 997.87 999.07 1000.28 1001.38 1002.79 1003.96 1005.05 1006.22 1007.33 1008.39 1009.23 1009.90 1010.36 1011.09 1011.32 1011.59 1011.70 1011.86 1012.41 1012.44 1012.66 1013.07 1013.97 1014.70 1015.31 1015.73 1015.97 1015.97 1016.49 1017.03 1017.09 1017.36 1017.14
993.26 992.95 992.05 991.60 991.31 991.53 991.87 990.71 990.65 991.09 991.60 992.20 992.62 992.91 993.57 995.09 996.61 997.76 998.96 1000.27 1001.56 1003.00 1004.20 1005.26 1006.29 1007.46 1008.38 1009.05 1009.68 1010.41 1011.02 1011.23 1011.51 1011.72 1011.68 1012.18 1012.10 1012.51 1013.31 1014.30 1014.83 1015.50 1015.78 1015.95 1016.20 1016.74 1016.92 1016.89 1017.31
992.39 991.97 992.18 991.81 991.40 991.05 990.53 990.59 990.60 990.71 991.07 991.76 992.29 992.53 992.77 993.88 995.32 996.49 997.83 999.25 1000.55 1001.83 1002.99 1004.19 1005.34 1006.58 1007.47 1008.13 1008.95 1009.70 1010.33 1010.62 1010.50 1010.93 1011.55 1011.63 1011.98 1012.08 1012.96 1013.76 1014.53 1015.03 1015.21 1015.63 1016.13 1016.33 1016.69 1016.93 1016.98
991.98 991.92 991.81 990.88 990.12 989.67 989.66 989.23 989.32 990.02 991.17 991.54 991.73 992.06 992.31 993.03 994.27 995.40 996.81 998.25 999.66 1000.92 1002.17 1003.46 1004.51 1005.52 1006.53 1007.28 1007.98 1008.73 1009.36 1009.93 1010.31 1010.41 1010.70 1011.21 1011.66 1012.37 1012.73 1013.56 1013.96 1014.34 1015.02 1015.62 1016.19 1016.11 1016.40 1016.79 1016.76
991.67 990.66 990.43 990.96 990.60 989.45 989.02 988.10 988.47 989.20 990.28 990.91 991.24 991.26 991.59 992.22 993.38 994.49 995.65 997.06 998.55 999.88 1000.99 1002.18 1003.36 1004.44 1005.45 1006.25 1006.93 1007.64 1008.36 1009.02 1009.67 1009.79 1010.21 1010.88 1011.43 1011.67 1012.38 1013.28 1013.92 1014.37 1014.63 1015.56 1016.51 1016.29 1016.17 1016.25 1016.68
990.95 990.57 990.42 989.70 990.07 989.73 988.98 987.61 987.72 988.64 989.59 990.45 990.43 990.50 990.72 991.29 992.34 993.67 994.60 995.99 997.31 998.62 999.75 1000.79 1002.08 1003.18 1004.16 1005.08 1005.94 1006.60 1007.39 1008.06 1008.46 1008.99 1009.61 1010.31 1010.94 1011.45 1012.14 1012.70 1013.42 1014.08 1014.78 1015.15 1015.08 1016.71 1016.31 1016.08 1016.15
Thickness
5808 5812 5816 5800 5754 5773 5797 5801 5811 5805 5803 5821 5822 5798 5782 5778 5775 5755 5775 5778 5781 5779 5770 5768 5765 5763 5763 5761 5760 5760 5758 5756 5754 5755 5755 5752 5750 5749 5750 5749 5747 5747 5748 5747 5747 5745 5746 5747 5747
5826 5828 5823 5825 5800 5755 5791 5813 5799 5809 5820 5826 5822 5815 5800 5782 5799 5784 5782 5787 5786 5784 5778 5772 5766 5765 5762 5760 5760 5760 5759 5758 5755 5755 5754 5753 5750 5748 5750 5749 5747 5748 5747 5747 5747 5747 5747 5747 5748
5842 5842 5825 5829 5797 5789 5795 5817 5817 5819 5827 5824 5812 5819 5808 5784 5798 5791 5792 5790 5790 5785 5782 5771 5767 5765 5762 5762 5762 5761 5760 5758 5756 5755 5754 5752 5749 5749 5749 5748 5748 5749 5748 5747 5747 5747 5748 5748 5749
5841 5841 5845 5834 5816 5828 5823 5827 5826 5821 5825 5827 5820 5795 5809 5814 5799 5803 5799 5794 5790 5786 5783 5770 5767 5766 5764 5762 5763 5760 5759 5758 5756 5754 5753 5751 5749 5749 5749 5748 5749 5750 5749 5749 5749 5749 5749 5749 5749
5851 5849 5835 5826 5814 5830 5837 5837 5837 5825 5824 5823 5821 5793 5791 5808 5814 5808 5799 5793 5790 5788 5783 5774 5769 5767 5765 5763 5762 5760 5759 5758 5755 5753 5752 5750 5749 5749 5750 5750 5750 5750 5750 5750 5749 5750 5750 5750 5750
5837 5860 5823 5832 5818 5831 5836 5842 5839 5832 5828 5819 5811 5798 5795 5811 5807 5806 5802 5796 5793 5793 5789 5777 5770 5767 5765 5763 5761 5760 5759 5757 5755 5753 5751 5749 5749 5750 5751 5751 5751 5751 5751 5750 5750 5750 5751 5751 5750
5833 5832 5831 5847 5824 5825 5831 5847 5837 5829 5821 5817 5819 5796 5797 5805 5812 5813 5805 5801 5798 5796 5792 5781 5775 5770 5766 5763 5761 5759 5758 5756 5755 5753 5751 5751 5752 5753 5754 5753 5752 5751 5750 5751 5750 5750 5750 5750 5751
5860 5843 5856 5848 5839 5825 5841 5842 5845 5834 5824 5839 5836 5795 5788 5806 5815 5816 5814 5800 5798 5797 5795 5787 5781 5776 5771 5766 5761 5760 5758 5757 5755 5754 5754 5755 5756 5756 5757 5756 5754 5753 5752 5751 5750 5751 5751 5752 5752
5870 5815 5842 5850 5836 5837 5848 5835 5843 5848 5824 5827 5832 5824 5816 5813 5816 5811 5807 5798 5793 5795 5788 5792 5788 5781 5777 5772 5764 5761 5759 5757 5756 5756 5756 5757 5762 5761 5762 5758 5756 5755 5753 5752 5752 5751 5753 5752 5752
5844 5780 5830 5877 5870 5852 5849 5842 5836 5827 5818 5818 5817 5829 5818 5811 5807 5804 5802 5798 5796 5788 5792 5794 5787 5784 5781 5779 5768 5766 5764 5764 5764 5765 5762 5764 5769 5767 5765 5762 5760 5757 5756 5755 5755 5755 5755 5754 5757
5858 5809 5845 5874 5873 5874 5852 5845 5846 5833 5815 5822 5811 5812 5810 5808 5804 5803 5804 5803 5800 5790 5797 5796 5786 5782 5785 5785 5776 5776 5775 5774 5772 5770 5768 5770 5771 5771 5769 5766 5768 5766 5762 5761 5758 5759 5758 5761 5762
5848 5869 5870 5878 5872 5870 5856 5859 5840 5837 5840 5841 5830 5822 5812 5807 5805 5805 5805 5806 5805 5799 5802 5802 5794 5788 5788 5785 5784 5785 5784 5781 5780 5776 5769 5769 5770 5774 5772 5769 5769 5767 5766 5766 5763 5765 5762 5761 5762
5855 5866 5877 5878 5872 5871 5874 5853 5844 5837 5845 5845 5836 5823 5814 5812 5809 5812 5812 5812 5810 5803 5804 5802 5796 5790 5789 5788 5788 5789 5787 5784 5785 5782 5775 5773 5776 5775 5772 5773 5770 5770 5770 5767 5766 5763 5764 5762 5763
5876 5873 5872 5878 5874 5869 5862 5854 5846 5844 5847 5838 5829 5821 5818 5816 5815 5813 5811 5809 5809 5807 5805 5804 5798 5792 5789 5788 5787 5788 5787 5786 5786 5785 5783 5774 5774 5773 5775 5774 5774 5773 5769 5768 5766 5766 5762 5759 5760
5868 5851 5866 5867 5870 5860 5869 5841 5835 5853 5845 5832 5827 5824 5823 5822 5822 5816 5815 5812 5811 5809 5808 5805 5801 5797 5791 5789 5786 5785 5789 5788 5788 5787 5784 5780 5776 5775 5774 5776 5776 5775 5771 5767 5765 5760 5762 5763 5764
5852 5858 5850 5867 5865 5865 5863 5829 5850 5859 5844 5834 5830 5826 5824 5825 5825 5823 5822 5819 5817 5813 5809 5807 5808 5803 5796 5793 5790 5790 5791 5788 5789 5790 5786 5783 5778 5776 5775 5778 5779 5778 5774 5770 5765 5765 5761 5768 5769
5848 5835 5851 5850 5873 5861 5853 5779 5855 5861 5849 5839 5834 5831 5828 5825 5827 5827 5827 5824 5823 5817 5812 5808 5808 5807 5802 5796 5795 5793 5793 5791 5791 5792 5789 5787 5783 5780 5777 5780 5779 5774 5771 5767 5765 5765 5767 5765 5765
5833 5842 5869 5853 5862 5861 5850 5840 5860 5858 5852 5844 5839 5837 5831 5829 5829 5833 5830 5829 5826 5821 5816 5811 5808 5806 5803 5800 5795 5793 5794 5793 5795 5796 5795 5789 5785 5782 5780 5781 5776 5771 5772 5770 5764 5763 5765 5760 5762
5864 5867 5861 5878 5878 5857 5852 5853 5855 5857 5854 5848 5843 5840 5837 5835 5840 5839 5834 5833 5828 5825 5817 5812 5807 5805 5802 5795 5790 5790 5792 5797 5801 5800 5797 5790 5783 5781 5778 5775 5773 5772 5772 5768 5766 5764 5762 5760 5766
5854 5863 5868 5881 5880 5864 5862 5860 5872 5861 5854 5856 5852 5846 5843 5842 5843 5839 5837 5835 5831 5825 5822 5815 5810 5808 5804 5800 5799 5801 5802 5805 5804 5800 5799 5793 5789 5784 5777 5776 5779 5776 5775 5768 5762 5757 5757 5762 5761
5847 5854 5870 5872 5872 5865 5866 5846 5864 5873 5867 5862 5863 5863 5858 5850 5846 5844 5839 5836 5836 5830 5825 5820 5816 5812 5808 5806 5804 5802 5802 5803 5801 5802 5797 5792 5787 5785 5779 5774 5773 5771 5767 5768 5759 5757 5754 5754 5758
5832 5863 5872 5877 5844 5825 5863 5829 5858 5870 5867 5865 5863 5864 5864 5860 5857 5854 5844 5839 5839 5836 5832 5826 5820 5814 5811 5807 5807 5801 5797 5795 5802 5802 5804 5799 5790 5786 5781 5776 5772 5767 5766 5764 5758 5757 5751 5749 5751
5839 5871 5865 5870 5865 5838 5856 5839 5864 5875 5868 5870 5872 5871 5871 5871 5866 5859 5855 5847 5845 5842 5836 5829 5823 5817 5815 5811 5807 5804 5798 5805 5806 5803 5796 5789 5785 5781 5779 5773 5769 5763 5761 5759 5756 5753 5748 5750 5748
5858 5854 5861 5863 5861 5826 5853 5847 5853 5844 5877 5884 5891 5884 5878 5875 5874 5868 5864 5858 5849 5847 5840 5834 5825 5818 5815 5813 5809 5805 5804 5801 5799 5795 5790 5786 5785 5779 5776 5773 5768 5762 5759 5757 5751 5747 5744 5742 5743
5836 5831 5808 5811 5817 5815 5866 5853 5840 5893 5896 5889 5891 5896 5892 5885 5879 5873 5866 5860 5853 5846 5841 5835 5828 5819 5817 5813 5811 5806 5803 5800 5796 5794 5788 5788 5786 5784 5777 5772 5765 5760 5756 5753 5747 5742 5740 5736 5736
5825 5832 5813 5785 5809 5828 5862 5839 5865 5901 5906 5905 5905 5907 5906 5892 5886 5881 5876 5868 5860 5851 5843 5837 5830 5821 5818 5814 5811 5808 5803 5800 5797 5795 5794 5789 5790 5786 5781 5770 5761 5753 5750 5749 5745 5740 5737 5736 5729
5824 5814 5853 5834 5850 5834 5853 5866 5886 5896 5895 5895 5894 5899 5900 5895 5890 5887 5882 5875 5867 5857 5849 5841 5833 5824 5820 5816 5813 5808 5805 5802 5802 5799 5794 5793 5791 5789 5780 5772 5764 5758 5754 5746 5741 5737 5733 5730 5727
5823 5850 5816 5836 5805 5806 5839 5851 5851 5869 5867 5879 5883 5889 5896 5898 5894 5891 5886 5878 5872 5864 5856 5847 5839 5829 5822 5819 5816 5812 5808 5805 5803 5801 5798 5794 5790 5783 5779 5772 5766 5760 5753 5745 5736 5736 5731 5724 5724
5806 5815 5833 5838 5836 5816 5816 5845 5896 5882 5875 5872 5883 5897 5900 5899 5895 5893 5890 5885 5877 5870 5863 5854 5844 5835 5827 5823 5820 5817 5813 5809 5805 5803 5801 5795 5790 5787 5779 5769 5760 5753 5749 5738 5726 5726 5727 5722 5716
5819 5814 5826 5818 5804 5828 5838 5849 5909 5898 5888 5884 5889 5901 5909 5908 5901 5897 5894 5888 5881 5874 5868 5860 5851 5842 5836 5831 5826 5823 5818 5814 5810 5807 5803 5797 5788 5784 5776 5768 5761 5751 5741 5731 5729 5708 5712 5713 5711